Location: Ernsee
(50.8780°N, 12.0389°E)
Time: 10:38:21
(UTC+00:00)

Cosmos 1844 Rocket - Pass Details

Date: 20 January 2020
Orbit: 824 x 845 km, 71.0° (Epoch: 18 February)

Event Time Altitude Azimuth Distance (km) Brightness Sun altitude
Exits shadow 06:01:12 - 332° (NNW) 3,059 5.2 -9.7°
Reaches altitude 10° 06:02:48 10° 334° (NNW) 2,455 4.7 -9.5°
Maximum altitude 06:08:24 63° 56° (ENE) 932 3.1 -8.7°
Drops below altitude 10° 06:13:59 10° 138° (SE) 2,454 6.3 -7.9°
Sets 06:16:28 0° 141° (SE) 3,388 7.1 -7.5°
